Weather History for Soldotna, AK

Change the Weather History Date:

Saturday, August 10, 2013

  Actual Average Record
Temperature  
Mean Temperature 54 °F -  
Max Temperature 60 °F 62 °F 75 °F (1972)
Min Temperature 48 °F 46 °F 36 °F (1962)
Degree Days  
Heating Degree Days 11    
Growing Degree Days 4 (Base 50)    
Moisture  
Dew Point 48 °F    
Average Humidity 79    
Maximum Humidity 94    
Minimum Humidity 59    
Precipitation  
Precipitation 0.00 in - - ()
Sea Level Pressure  
Sea Level Pressure 29.86 in    
Wind  
Wind Speed 3 mph (West)    
Max Wind Speed 12 mph    
Max Gust Speed -    
Visibility 10 miles    
Events      
Averages and records for this station are not official NWS values.
T = Trace of Precipitation, MM = Missing Value Source: NWS Daily Summary

Daily Weather History Graph

Daily Weather History Graph

Search for Another Location

Airport:

Trip Planner

Search our weather history database for the weather conditions in past years. The results will help you decide how hot, cold, wet, or windy it might be!

Date:

Astronomy

Aug. 10, 2013 Rise Set
Actual Time 6:04 AM AKDT 10:12 PM AKDT
Civil Twilight 5:09 AM AKDT 11:06 PM AKDT
Nautical Twilight 3:38 AM AKDT 12:34 AM AKDT
Astronomical Twilight Sun does not rise Sun does not rise
Moon 11:24 AM AKDT (8/10) 10:30 PM AKDT (8/10)
Length of Visible Light 17h 57m
Length of Day
16h 07m
Waxing Crescent, 15% of the Moon is Illuminated
Aug 10
Waxing Crescent
Aug 14
First Quarter
Aug 20
Full
Aug 28
Last Quarter
Sep 5
New

Hourly Weather History & Observations

Time (AKDT) Temp. Dew Point Humidity Pressure Visibility Wind Dir Wind Speed Gust Speed Precip Events Conditions
12:16 AM 51.8 °F 48.2 °F 88% 29.75 in 10.0 mi Calm Calm - N/A   Overcast
12:36 AM 51.8 °F 48.2 °F 88% 29.75 in 10.0 mi Calm Calm - N/A   Overcast
12:56 AM 51.8 °F 48.2 °F 88% 29.76 in 10.0 mi Calm Calm - N/A   Overcast
1:16 AM 51.8 °F 48.2 °F 88% 29.76 in 10.0 mi Calm Calm - N/A   Overcast
1:36 AM 51.8 °F 48.2 °F 88% 29.76 in 10.0 mi Calm Calm - N/A   Overcast
1:56 AM 51.8 °F 48.2 °F 88% 29.77 in 10.0 mi Calm Calm - N/A   Overcast
2:16 AM 51.8 °F 48.2 °F 88% 29.77 in 10.0 mi SW 3.5 mph - N/A   Overcast
2:36 AM 51.8 °F 50.0 °F 94% 29.77 in 10.0 mi Calm Calm - N/A   Mostly Cloudy
2:56 AM 51.8 °F 48.2 °F 88% 29.77 in 10.0 mi Calm Calm - N/A   Mostly Cloudy
3:16 AM 50.0 °F 48.2 °F 94% 29.77 in 10.0 mi Calm Calm - N/A   Partly Cloudy
3:36 AM 50.0 °F 46.4 °F 87% 29.77 in 10.0 mi Calm Calm - N/A   Mostly Cloudy
3:56 AM 48.2 °F 46.4 °F 93% 29.77 in 10.0 mi Calm Calm - N/A   Overcast
4:16 AM 48.2 °F 46.4 °F 93% 29.78 in 10.0 mi Calm Calm - N/A   Overcast
4:36 AM 50.0 °F 46.4 °F 87% 29.78 in 10.0 mi Calm Calm - N/A   Overcast
4:56 AM 50.0 °F 46.4 °F 87% 29.78 in 10.0 mi Calm Calm - N/A   Overcast
5:16 AM 50.0 °F 46.4 °F 87% 29.78 in 10.0 mi Calm Calm - N/A   Overcast
5:36 AM 50.0 °F 46.4 °F 87% 29.78 in 10.0 mi Calm Calm - N/A   Overcast
5:56 AM 48.2 °F 46.4 °F 93% 29.78 in 10.0 mi East 3.5 mph - N/A   Overcast
6:16 AM 50.0 °F 48.2 °F 94% 29.78 in 10.0 mi Calm Calm - N/A   Overcast
6:36 AM 51.8 °F 48.2 °F 88% 29.78 in 5.0 mi Calm Calm - N/A   Overcast
6:56 AM 51.8 °F 48.2 °F 88% 29.78 in 1.5 mi SW 3.5 mph - N/A   Overcast
7:16 AM 51.8 °F 50.0 °F 94% 29.78 in 0.5 mi West 8.1 mph - N/A   Overcast
7:36 AM 51.8 °F 48.2 °F 88% 29.79 in 2.5 mi WSW 6.9 mph - N/A   Overcast
7:56 AM 51.8 °F 48.2 °F 88% 29.79 in 10.0 mi WSW 6.9 mph - N/A   Overcast
8:16 AM 51.8 °F 48.2 °F 88% 29.79 in 10.0 mi West 5.8 mph - N/A   Overcast
8:36 AM 51.8 °F 48.2 °F 88% 29.80 in 10.0 mi West 6.9 mph - N/A   Overcast
8:56 AM 51.8 °F 48.2 °F 88% 29.80 in 10.0 mi West 8.1 mph - N/A   Overcast
9:16 AM 51.8 °F 48.2 °F 88% 29.81 in 10.0 mi WSW 6.9 mph - N/A   Overcast
9:36 AM 51.8 °F 48.2 °F 88% 29.81 in 7.0 mi WSW 3.5 mph - N/A   Overcast
9:56 AM 53.6 °F 48.2 °F 82% 29.81 in 10.0 mi West 3.5 mph - N/A   Mostly Cloudy
10:16 AM 53.6 °F 48.2 °F 82% 29.82 in 10.0 mi West 6.9 mph - N/A   Mostly Cloudy
10:36 AM 53.6 °F 48.2 °F 82% 29.84 in 10.0 mi WSW 6.9 mph - N/A   Overcast
10:56 AM 53.6 °F 48.2 °F 82% 29.84 in 10.0 mi West 8.1 mph - N/A   Overcast
11:16 AM 55.4 °F 48.2 °F 77% 29.84 in 10.0 mi WNW 6.9 mph - N/A   Overcast
11:36 AM 55.4 °F 48.2 °F 77% 29.85 in 10.0 mi West 6.9 mph - N/A   Overcast
11:56 AM 55.4 °F 48.2 °F 77% 29.86 in 10.0 mi WNW 8.1 mph - N/A   Overcast
12:16 PM 55.4 °F 48.2 °F 77% 29.86 in 10.0 mi WNW 6.9 mph - N/A   Overcast
12:36 PM 57.2 °F 48.2 °F 72% 29.87 in 10.0 mi WSW 3.5 mph - N/A   Overcast
12:56 PM 57.2 °F 48.2 °F 72% 29.88 in 10.0 mi WNW 6.9 mph - N/A   Overcast
1:16 PM 57.2 °F 48.2 °F 72% 29.88 in 10.0 mi West 6.9 mph - N/A   Overcast
1:36 PM 57.2 °F 50.0 °F 77% 29.88 in 10.0 mi WNW 4.6 mph - N/A   Overcast
1:56 PM 57.2 °F 48.2 °F 72% 29.89 in 10.0 mi NW 4.6 mph - N/A   Overcast
2:16 PM 57.2 °F 48.2 °F 72% 29.90 in 10.0 mi WNW 8.1 mph - N/A   Overcast
2:36 PM 57.2 °F 48.2 °F 72% 29.90 in 10.0 mi West 9.2 mph - N/A   Overcast
2:56 PM 59.0 °F 48.2 °F 67% 29.90 in 10.0 mi West 4.6 mph - N/A   Mostly Cloudy
3:16 PM 59.0 °F 50.0 °F 72% 29.90 in 10.0 mi West 9.2 mph - N/A   Mostly Cloudy
3:36 PM 59.0 °F 48.2 °F 67% 29.91 in 10.0 mi WSW 5.8 mph - N/A   Overcast
3:56 PM 60.8 °F 48.2 °F 63% 29.91 in 10.0 mi WNW 3.5 mph - N/A   Mostly Cloudy
4:16 PM 60.8 °F 50.0 °F 68% 29.92 in 10.0 mi WSW 10.4 mph - N/A   Mostly Cloudy
4:36 PM 60.8 °F 48.2 °F 63% 29.92 in 10.0 mi West 11.5 mph - N/A   Mostly Cloudy
4:56 PM 60.8 °F 48.2 °F 63% 29.92 in 10.0 mi West 10.4 mph - N/A   Scattered Clouds
5:16 PM 60.8 °F 48.2 °F 63% 29.92 in 10.0 mi West 10.4 mph - N/A   Clear
5:36 PM 60.8 °F 48.2 °F 63% 29.93 in 10.0 mi West 9.2 mph - N/A   Clear
5:56 PM 60.8 °F 48.2 °F 63% 29.93 in 10.0 mi West 9.2 mph - N/A   Clear
6:16 PM 60.8 °F 48.2 °F 63% 29.93 in 10.0 mi West 8.1 mph - N/A   Clear
6:36 PM 60.8 °F 46.4 °F 59% 29.94 in 10.0 mi West 9.2 mph - N/A   Clear
6:56 PM 59.0 °F 46.4 °F 63% 29.94 in 10.0 mi WNW 9.2 mph - N/A   Clear
7:16 PM 60.8 °F 48.2 °F 63% 29.94 in 10.0 mi West 9.2 mph - N/A   Clear
7:36 PM 59.0 °F 46.4 °F 63% 29.95 in 10.0 mi West 9.2 mph - N/A   Clear
7:56 PM 57.2 °F 46.4 °F 67% 29.95 in 10.0 mi West 9.2 mph - N/A   Clear
8:16 PM 57.2 °F 46.4 °F 67% 29.96 in 10.0 mi West 6.9 mph - N/A   Partly Cloudy
8:36 PM 57.2 °F 48.2 °F 72% 29.96 in 10.0 mi West 8.1 mph - N/A   Clear
8:56 PM 57.2 °F 46.4 °F 67% 29.96 in 10.0 mi West 6.9 mph - N/A   Partly Cloudy
9:16 PM 55.4 °F 46.4 °F 72% 29.97 in 10.0 mi West 6.9 mph - N/A   Mostly Cloudy
9:36 PM 55.4 °F 48.2 °F 77% 29.97 in 10.0 mi West 5.8 mph - N/A   Overcast
9:56 PM 55.4 °F 48.2 °F 77% 29.97 in 10.0 mi WSW 4.6 mph - N/A   Overcast
10:16 PM 55.4 °F 48.2 °F 77% 29.98 in 10.0 mi NW 3.5 mph - N/A   Mostly Cloudy
10:36 PM 53.6 °F 48.2 °F 82% 29.98 in 10.0 mi West 3.5 mph - N/A   Scattered Clouds
10:56 PM 53.6 °F 46.4 °F 77% 29.98 in 10.0 mi Calm Calm - N/A   Mostly Cloudy
11:16 PM 51.8 °F 46.4 °F 82% 29.99 in 10.0 mi SSW 3.5 mph - N/A   Partly Cloudy
11:36 PM 51.8 °F 46.4 °F 82% 29.99 in 10.0 mi Calm Calm - N/A   Partly Cloudy
11:56 PM 51.8 °F 46.4 °F 82% 30.00 in 10.0 mi Calm Calm - N/A   Mostly Cloudy